CZ-6A DEB, 54565

Orbit data source: Space-Track

CZ-6A DEB, 54565 is space debris in SSO originally from a launch on Fri, 11 Nov 2022 UTC launched from the Taiyaun Space Center, China (TSC). Debris objects in space refer to the collection of defunct objects orbiting the Earth. Examples of debris include non-operational satellites, rocket bodies, and fragments generated from explosions, collisions, or faulty payload assembly.

Loading next visibility...
Identifier
54565, 2022-151LR
Orbit
SSO
Country
Flag of CNCN / PRC
Related business
Manufacturer
SAST
Mission
Spacecraft
Bus & Motor
Unknown
Mass
Unknown
Launch date (UTC)
2022-11-11 (4 years ago)
Launch vehicle
Unknown
Launch site
Taiyaun Space Center, China (TSC)
Object type
Payload
Rocket body
Debris
Shape & HBR
Unknown shape, 0.1 m
Radar Cross Section
Medium (>0.1 m² and <1 m²)

Expand to show TLE details & history
Last TLE update: 1 day ago

TLE from 1 day ago
0 CZ-6A DEB
1 54565U 22151LR  26235.12554309  .00008517  00000-0  13783-2 0  9998
2 54565  98.6274 304.6869 0092563  89.7425 271.4385 14.68700921199871
Epoch: 2026-08-23T03:00Z
TLE epoch observation values (Epoch: 2026-08-23T03:00:46.922Z)
Latitude
-0.00004°
Longitude
-71.93469°
Altitude
667.169 km
Speed
7.524 km/s
True Right ascension
20h 18m 44s
True Declination
0° 00' 00"
Sunlit
Object was in full shadow at epoch
Visualization orbit readout
Latitude
Unknown
Longitude
Unknown
Altitude
Unknown
Speed
Unknown
Apparent Right ascension
Unknown
Apparent Declination
Unknown
Sunlit
N/A
Visualization observer readout
Local Sidereal Time
02:08:38
Azimuth
Unknown
Elevation
Unknown
Doppler factor
Unknown
Orbital elements
Apogee altitude
727.476 km
Perigee altitude
597.139 km
Semi-major axis
7,040.445 km
Eccentricity
0.00926
Inclination
98.6274°
RAAN
304.6869°
Arg. of periapsis
89.7425°
True anomaly
270.37789°
Mean anomaly
271.4385°
Eccentric anomaly
270.90822°
Mean motion
3.67403 °/min
Orbital period
97.98 mins
BSTAR
0.0013783
Loading maneuver chart data...
Computing Atmospheric mass density...
Loading historical data...
Loading historical data...
Loading historical data...
Loading historical data...
Loading historical data...
Loading historical data...
Loading historical data...

Documentation

Showing up to 5 results
|